TimeCDT,TemperatureF,Dew PointF,Humidity,Sea Level PressureIn,VisibilityMPH,Wind Direction,Wind SpeedMPH,Gust SpeedMPH,PrecipitationIn,Events,Conditions,WindDirDegrees,DateUTC
12:53 AM,46.9,35.1,63,30.13,10.0,NNE,3.5,-,N/A,,Overcast,30,2013-04-04 05:53:00
1:53 AM,48.0,30.0,50,30.11,10.0,NNE,3.5,-,N/A,,Overcast,30,2013-04-04 06:53:00
2:53 AM,48.9,28.0,44,30.09,10.0,North,3.5,-,N/A,,Overcast,360,2013-04-04 07:53:00
3:53 AM,48.9,27.0,43,30.08,10.0,Calm,Calm,-,N/A,,Overcast,0,2013-04-04 08:53:00
4:53 AM,48.0,30.9,52,30.07,10.0,West,3.5,-,N/A,,Overcast,280,2013-04-04 09:53:00
5:53 AM,48.0,30.0,50,30.07,10.0,NNW,4.6,-,N/A,,Overcast,330,2013-04-04 10:53:00
6:53 AM,48.0,32.0,54,30.08,10.0,NNW,5.8,-,N/A,,Overcast,330,2013-04-04 11:53:00
7:53 AM,46.9,37.0,68,30.10,10.0,West,3.5,-,N/A,,Overcast,280,2013-04-04 12:53:00
8:53 AM,45.0,36.0,71,30.10,7.0,NW,6.9,-,0.01,Rain,Light Rain,310,2013-04-04 13:53:00
9:53 AM,43.0,37.9,82,30.12,4.0,North,5.8,-,0.06,Rain,Rain,360,2013-04-04 14:53:00
10:53 AM,43.0,39.0,86,30.13,4.0,NNW,4.6,-,0.09,Rain,Rain,330,2013-04-04 15:53:00
11:53 AM,43.0,39.0,86,30.12,7.0,WNW,3.5,-,0.05,Rain,Light Rain,290,2013-04-04 16:53:00
12:53 PM,45.0,39.9,82,30.09,8.0,NW,5.8,-,0.02,Rain,Light Rain,310,2013-04-04 17:53:00
1:53 PM,45.0,39.9,82,30.09,6.0,NW,8.1,-,0.02,Rain,Light Rain,320,2013-04-04 18:53:00
2:53 PM,46.0,41.0,83,30.07,8.0,WNW,4.6,-,0.00,,Overcast,290,2013-04-04 19:53:00
3:53 PM,46.0,41.0,83,30.06,9.0,NW,9.2,-,0.01,,Overcast,310,2013-04-04 20:53:00
4:53 PM,46.0,42.1,86,30.06,7.0,WNW,5.8,-,0.00,Rain,Light Rain,290,2013-04-04 21:53:00
5:53 PM,48.0,43.0,83,30.06,10.0,Calm,Calm,-,0.00,,Overcast,0,2013-04-04 22:53:00
6:53 PM,48.0,43.0,83,30.05,10.0,NW,4.6,-,N/A,,Overcast,310,2013-04-04 23:53:00
7:53 PM,48.0,42.1,80,30.06,10.0,NW,3.5,-,N/A,,Scattered Clouds,310,2013-04-05 00:53:00
8:53 PM,48.0,43.0,83,30.07,10.0,Calm,Calm,-,N/A,,Overcast,0,2013-04-05 01:53:00
9:53 PM,48.0,43.0,83,30.08,10.0,NW,3.5,-,N/A,,Partly Cloudy,320,2013-04-05 02:53:00
10:53 PM,48.9,42.1,77,30.09,10.0,NW,3.5,-,N/A,,Overcast,320,2013-04-05 03:53:00
11:53 PM,48.9,42.1,77,30.10,10.0,NW,3.5,-,N/A,,Clear,310,2013-04-05 04:53:00